DL1WER-13 Weather Reports


time (UTC)temp
F
wind
direction
speed
knots
gust
knots
rain 1hr
in
rain 24hr
in
rain mn
in
humidity
%
barometer
mb
20260505235022 50 311 0.9 1.7 0.00 0.04 0.00 94 1035.2
20260505234022 50 283 0.0 1.7 0.00 0.04 0.00 94 1035.3
20260505233023 51 291 0.0 1.7 0.00 0.04 0.00 94 1035.5
20260505232022 51 160 0.9 2.6 0.00 0.04 0.00 93 1035.4
20260505231022 51 199 0.9 1.7 0.00 0.04 0.00 93 1035.4
20260505230023 51 205 0.9 1.7 0.00 0.04 0.00 93 1035.3
20260505225022 51 236 0.9 2.6 0.00 0.04 0.00 93 1035.5
20260505224022 52 210 0.0 1.7 0.00 0.04 0.00 93 1035.6
20260505223023 52 323 0.9 3.5 0.00 0.04 0.00 93 1035.4
20260505222022 52 323 1.7 3.5 0.00 0.04 0.00 93 1035.6
20260505221022 53 149 1.7 3.5 0.00 0.04 0.00 92 1035.6
20260505220026 53 224 1.7 3.5 0.00 0.04 0.00 92 1035.5
20260505215022 53 335 1.7 4.3 0.00 0.04 0.04 92 1035.3
20260505214023 53 326 1.7 4.3 0.00 0.04 0.04 91 1035.5
20260505213022 53 323 1.7 4.3 0.01 0.04 0.04 91 1035.3
20260505212023 53 324 2.6 5.2 0.01 0.04 0.04 90 1035.2
20260505211023 53 289 1.7 4.3 0.02 0.04 0.04 90 1035.3
20260505210023 53 296 1.7 5.2 0.02 0.04 0.04 90 1035.5
20260505205022 54 274 0.9 3.5 0.02 0.04 0.04 90 1035.4
20260505204023 54 209 1.7 6.1 0.02 0.04 0.04 88 1035.5
20260505203023 54 322 2.6 6.1 0.01 0.02 0.02 86 1035.5
20260505202022 56 269 3.5 7.0 0.01 0.02 0.02 78 1035.6
20260505201023 57 349 2.6 6.1 0.00 0.01 0.01 75 1035.6
20260505200022 57 305 4.3 12.2 0.00 0.01 0.01 72 1035.4
20260505195022 58 265 5.2 10.4 0.00 0.01 0.01 70 1035.4
20260505194022 58 181 2.6 9.6 0.00 0.01 0.01 73 1035.2
20260505193022 58 260 1.7 4.3 0.00 0.01 0.01 74 1035.0
20260505192022 58 282 1.7 6.1 0.00 0.01 0.01 75 1034.9
20260505191022 58 202 0.0 2.6 0.00 0.01 0.01 76 1034.3
20260505190022 58 159 0.9 3.5 0.00 0.01 0.01 76 1034.5
20260505185022 58 1 0.0 1.7 0.00 0.01 0.01 76 1034.2
20260505184022 58 0 0.0 0.9 0.00 0.01 0.01 75 1034.2
20260505183022 58 181 0.0 0.9 0.00 0.01 0.01 75 1034.2
20260505182022 58 173 0.0 1.7 0.00 0.01 0.01 74 1034.0
20260505181021 59 169 0.0 1.7 0.00 0.01 0.01 73 1034.1
20260505180023 59 171 0.9 1.7 0.00 0.01 0.01 72 1033.9
20260505175022 60 266 0.9 2.6 0.00 0.01 0.01 71 1033.7
20260505174021 60 137 0.9 1.7 0.00 0.01 0.01 71 1033.6
20260505173023 60 198 0.0 1.7 0.00 0.01 0.01 72 1033.4
20260505172022 61 320 0.0 1.7 0.00 0.01 0.01 70 1033.3
20260505171022 61 158 0.9 2.6 0.00 0.01 0.01 70 1033.3
20260505170023 61 214 1.7 3.5 0.00 0.01 0.01 71 1033.1
20260505165022 61 233 0.9 3.5 0.00 0.01 0.01 72 1033.1
20260505164021 61 235 0.9 2.6 0.00 0.01 0.01 71 1033.3
20260505163022 62 144 0.9 1.7 0.00 0.01 0.01 69 1033.8
20260505162022 62 279 1.7 3.5 0.00 0.01 0.01 68 1033.8
20260505161021 62 314 1.7 3.5 0.00 0.01 0.01 67 1033.9
20260505153023 62 178 1.7 3.5 0.00 0.01 0.01 68 1033.6
20260505152022 62 156 1.7 5.2 0.00 0.01 0.01 66 1033.8
20260505151022 62 229 2.6 4.3 0.00 0.01 0.01 66 1033.8
20260505125021 60 299 2.6 4.3 0.01 0.01 0.01 84 1034.4
20260505124022 60 151 2.6 4.3 0.01 0.01 0.01 83 1034.3
20260505123024 60 216 2.6 7.0 0.01 0.01 0.01 80 1034.8
20260505122021 61 260 2.6 7.0 0.00 0.00 0.00 76 1034.6
20260505121022 63 165 2.6 7.0 0.00 0.00 0.00 71 1034.5
20260505120022 65 289 2.6 6.1 0.00 0.00 0.00 63 1034.6
20260505115021 66 299 2.6 5.2 0.00 0.00 0.00 60 1034.5
20260505114021 68 257 1.7 5.2 0.00 0.00 0.00 53 1034.2
20260505113022 68 309 2.6 5.2 0.00 0.00 0.00 50 1034.1
20260505112022 69 320 2.6 4.3 0.00 0.00 0.00 51 1034.2
20260505111022 68 264 0.9 1.7 0.00 0.00 0.00 52 1034.1
20260505102022 67 255 1.7 3.5 0.00 0.00 0.00 51 1034.1
20260505101021 67 284 2.6 3.5 0.00 0.00 0.00 50 1034.3
20260505100022 67 160 2.6 3.5 0.00 0.00 0.00 47 1034.2
20260505095021 68 213 2.6 4.3 0.00 0.00 0.00 50 1034.4
20260505094020 70 297 1.7 3.5 0.00 0.00 0.00 54 1034.5
20260505093022 69 232 1.7 3.5 0.00 0.00 0.00 55 1034.3
20260505092021 68 311 1.7 3.5 0.00 0.00 0.00 56 1034.5
20260505091022 68 222 1.7 3.5 0.00 0.00 0.00 60 1034.7
20260505090022 66 236 1.7 3.5 0.00 0.00 0.00 60 1034.7
20260505085021 65 275 3.5 5.2 0.00 0.00 0.00 60 1034.8
20260505084021 67 342 1.7 4.3 0.00 0.00 0.00 60 1034.7
20260505083021 66 291 1.7 3.5 0.00 0.00 0.00 63 1034.9
20260505082021 63 355 1.7 3.5 0.00 0.00 0.00 67 1035.1
20260505081022 62 138 0.9 1.7 0.00 0.00 0.00 71 1035.3
20260505080022 61 261 0.9 2.6 0.00 0.00 0.00 71 1035.1
20260505075021 61 305 0.9 2.6 0.00 0.00 0.00 70 1035.1
20260505074021 61 330 1.7 3.5 0.00 0.00 0.00 70 1035.4
20260505073021 60 300 0.9 2.6 0.00 0.00 0.00 70 1035.2
20260505072021 60 257 1.7 2.6 0.00 0.00 0.00 70 1035.5
20260505071021 60 277 0.9 2.6 0.00 0.00 0.00 71 1035.7
20260505070021 60 292 0.9 2.6 0.00 0.00 0.00 73 1035.8
20260505065021 58 305 0.9 1.7 0.00 0.00 0.00 74 1036.1
20260505064021 56 302 0.9 2.6 0.00 0.00 0.00 75 1035.8
20260505063022 57 333 1.7 3.5 0.00 0.00 0.00 76 1036.3
20260505062021 55 322 1.7 3.5 0.00 0.00 0.00 80 1036.0
20260505061021 53 323 1.7 2.6 0.00 0.00 0.00 84 1035.9
20260505060021 52 332 1.7 3.5 0.00 0.00 0.00 84 1035.9
20260505055021 51 342 2.6 3.5 0.00 0.00 0.00 83 1036.0
20260505054020 51 318 1.7 3.5 0.00 0.00 0.00 82 1036.1
20260505053021 51 329 1.7 3.5 0.00 0.00 0.00 82 1035.9
20260505052021 51 299 1.7 2.6 0.00 0.00 0.00 82 1036.0
20260505051021 51 297 0.9 2.6 0.00 0.00 0.00 85 1035.8
20260505041021 46 298 0.9 1.7 0.00 0.00 0.00 91 1036.2
20260505040021 46 294 1.7 2.6 0.00 0.00 0.00 91 1036.3
20260505035021 46 319 0.9 1.7 0.00 0.00 0.00 90 1036.4
20260505034021 46 312 1.7 2.6 0.00 0.00 0.00 90 1036.3
20260505033021 46 277 0.9 2.6 0.00 0.00 0.00 90 1036.4
20260505032021 46 329 0.9 1.7 0.00 0.00 0.00 90 1036.7
20260505031021 46 298 0.9 1.7 0.00 0.00 0.00 90 1036.4
20260505030021 47 336 1.7 2.6 0.00 0.00 0.00 89 1036.5
20260505025020 47 303 0.9 2.6 0.00 0.00 0.00 88 1036.6
20260505024021 47 306 0.9 1.7 0.00 0.00 0.00 87 1036.7
20260505023021 48 287 0.9 1.7 0.00 0.00 0.00 87 1036.7
20260505022021 49 322 0.9 2.6 0.00 0.00 0.00 86 1036.9
20260505021021 49 343 1.7 2.6 0.00 0.00 0.00 85 1036.9
20260505020021 49 322 0.9 2.6 0.00 0.00 0.00 85 1037.2
20260505015020 50 288 0.0 1.7 0.00 0.00 0.00 84 1037.0
20260505014020 50 299 0.0 1.7 0.00 0.00 0.00 85 1037.1
20260505013022 51 227 0.0 1.7 0.00 0.00 0.00 86 1037.5
20260505012020 51 150 0.9 1.7 0.00 0.00 0.00 87 1037.3
20260505011021 50 151 0.0 1.7 0.00 0.00 0.00 87 1037.6
20260505010021 50 0 0.0 0.9 0.00 0.00 0.00 86 1037.4
20260505005021 50 0 0.0 0.9 0.00 0.00 0.00 85 1037.3
20260505004020 51 135 0.0 0.9 0.00 0.00 0.00 85 1037.3
20260505003021 51 262 0.0 1.7 0.00 0.00 0.00 84 1037.5
20260505002020 51 282 0.9 1.7 0.00 0.00 0.00 83 1037.6
20260505001021 52 270 0.9 1.7 0.00 0.00 0.00 82 1037.6
20260505000021 52 297 0.9 1.7 0.00 0.00 0.00 82 1037.7